• Processing (Info)

  • MPEC 2006-S28 : 2006 SQ19

    The following Minor Planet Electronic Circular may be linked-to from your own Web pages, but must not otherwise be redistributed electronically.

    A form allowing access to any MPEC is at the bottom of this page.


    Read MPEC 2006-S27 Read MPEC 2006-S29


    M.P.E.C. 2006-S28                                Issued 2006 Sept. 20, 10:58 UT
    
         The Minor Planet Electronic Circulars contain information on unusual
             minor planets and routine data on comets.  They are published
       on behalf of Commission 20 of the International Astronomical Union by the
              Minor Planet Center, Smithsonian Astrophysical Observatory,
                              Cambridge, MA 02138, U.S.A.
    
                      Supported in part by the Brinson Foundation
                      Supported in part by the TABASGO Foundation
                 Prepared using the Tamkin Foundation Computer Network
    
                                  MPC@CFA.HARVARD.EDU
              URL http://cfa-www.harvard.edu/iau/mpc.html  ISSN 1523-6714
    
                                       2006 SQ19
    
    Observations:
         K06S19Q* C2006 09 19.22060 23 40 36.91 +03 50 50.7          19.6 V ES028703
         K06S19Q  C2006 09 19.23186 23 40 38.10 +03 51 35.4          20.0 V ES028703
         K06S19Q  C2006 09 19.24319 23 40 39.32 +03 52 21.5          19.4 V ES028703
         K06S19Q  C2006 09 19.25449 23 40 40.47 +03 53 08.7          19.9 V ES028703
         K06S19Q  C2006 09 19.36670 23 40 52.21 +04 00 39.6                 ES028703
         K06S19Q  C2006 09 19.36757 23 40 52.31 +04 00 44.1                 ES028703
         K06S19Q  C2006 09 19.36845 23 40 52.30 +04 00 46.7                 ES028703
         K06S19Q  C2006 09 19.36932 23 40 52.44 +04 00 49.8                 ES028703
         K06S19Q 5C2006 09 19.46505 23 41 03.29 +04 07 14.6          19.8 R ES028673
         K06S19Q 5C2006 09 19.47037 23 41 03.92 +04 07 35.3                 ES028673
         K06S19Q 5C2006 09 19.47442 23 41 04.38 +04 07 52.5                 ES028673
         K06S19Q 5C2006 09 19.48032 23 41 05.05 +04 08 15.2                 ES028673
         K06S19Q  C2006 09 19.89224 23 42 00.53 +04 35 49.6          19.9 R ES028143
         K06S19Q  C2006 09 19.89942 23 42 01.37 +04 36 18.6          20.0 R ES028143
         K06S19Q  C2006 09 19.90663 23 42 02.14 +04 36 47.9          19.7 R ES028143
         K06S19Q  C2006 09 19.95895 23 42 08.25 +04 40 16.1                 ES028J95
         K06S19Q  C2006 09 19.96231 23 42 08.66 +04 40 29.0                 ES028J95
         K06S19Q  C2006 09 19.96581 23 42 09.01 +04 40 43.8          19.3 R ES028J95
         K06S19Q  C2006 09 20.12541 23 42 30.82 +04 51 36.8          20.1 R ES028734
         K06S19Q  C2006 09 20.12876 23 42 31.23 +04 51 49.2          20.0 R ES028734
         K06S19Q  C2006 09 20.13546 23 42 32.08 +04 52 18.6          20.5 R ES028734
         K06S19Q  C2006 09 20.14273 23 42 33.43 +04 52 51.9          20.1 R ES028448
         K06S19Q  C2006 09 20.16089 23 42 35.41 +04 54 05.1          19.8 R ES028448
         K06S19Q  C2006 09 20.16721 23 42 35.44 +04 54 25.4          19.4 R ES028649
         K06S19Q  C2006 09 20.16899 23 42 35.72 +04 54 34.2          19.4 R ES028649
         K06S19Q  C2006 09 20.17076 23 42 35.83 +04 54 40.8          19.3 R ES028649
         K06S19Q  C2006 09 20.17253 23 42 36.04 +04 54 47.6          19.3 R ES028649
         K06S19Q  C2006 09 20.17905 23 42 37.43 +04 55 18.5          19.9 R ES028448
    
    Observer details:
    143 Gnosca.  Observer S. Sposetti.  0.40-m f/4 reflector + CCD.
    448 Desert Moon Observatory.  Observer B. L. Stevens.  0.3-m
        Schmidt-Cassegrain + CCD.
    649 Powell Observatory, Louisburg.  Observers R. Trentman, R. Fredrick.
        0.75-m Newtonian reflector + CCD.
    673 Table Mountain Observatory, Wrightwood.  Observer J. Young.  0.61-m f/16
        Cassegrain + CCD.
    703 Catalina Sky Survey.  Observer A. R. Gibbs.  Measurers E. C. Beshore,
        E. J. Christensen, G. J. Garradd, A. R. Gibbs, A. D. Grauer, R. E. Hill,
        R. A. Kowalski, S. M. Larson, R. H. McNaught.  0.68-m Schmidt + CCD.
    734 Farpoint Observatory.  Observer G. Hug.  Measurer D. Tibbets.  0.7-m
        reflector + CCD.
    J95 Great Shefford.  Observer P. Birtwhistle.  0.40-m f/6.0 Schmidt-Cassegrain
        + CCD.
    
    Orbital elements:
    2006 SQ19                                                Earth MOID = 0.1508 AU
    Epoch 2006 Sept. 22.0 TT = JDT 2454000.5                MPC
    M 358.63391              (2000.0)            P               Q
    n   0.26913462     Peri.   14.26980     +0.99740116     -0.06933354
    a   2.3758718      Node   349.64631     +0.05064711     +0.86810708
    e   0.5151455      Incl.    6.25781     +0.05124250     +0.49151089
    P   3.66           H   23.4           G   0.15           U   8
    Residuals in seconds of arc
    060919 703  0.3+  0.2+    060919 673  0.4+  0.7+    060920 734  1.2+  1.3+
    060919 703  0.2+  0.6-    060919 673  0.4+  0.3-    060920 448  0.4+  0.2+
    060919 703  0.5+  0.3-    060919 143  0.3-  0.4-    060920 448  0.5-  0.3-
    060919 703  0.1-  1.2+    060919 143  0.5+  0.4-    060920 649  0.4-  0.8-
    060919 703  0.1-  0.4-    060919 143  0.1+  0.3-    060920 649  0.9+  0.8+
    060919 703  0.1+  0.6+    060919 J95  0.2-  0.3+    060920 649  0.4-  0.2+
    060919 703  1.5-  0.4-    060919 J95  0.4+  0.4-    060920 649  0.1-  0.1-
    060919 703  0.8-  0.8-    060919 J95  0.2-  0.3+    060920 448  0.3-  0.6-
    060919 673  0.0   0.5+    060920 734  0.8-  0.3+
    060919 673  0.4+  0.2-    060920 734  0.3-  0.9-
    
    Ephemeris:
    2006 SQ19                a,e,i = 2.38, 0.52, 6                   q = 1.1520
    Date    TT    R. A. (2000) Decl.     Delta      r     Elong.  Phase     V
    2006 09 12    23 26.14   -04 00.7    0.158    1.165   178.3     1.4    19.9
    2006 09 22    23 46.44   +06 58.1    0.151    1.153   172.2     6.8    20.1
    2006 10 02    00 08.44   +17 29.6    0.157    1.153   164.8    13.1    20.5
    2006 10 12    00 30.81   +25 33.8    0.176    1.165   159.6    17.4    20.9
    2006 10 22    00 51.98   +30 35.7    0.205    1.187   156.7    19.4    21.3
    2006 11 01    01 11.55   +33 06.6    0.245    1.219   155.0    20.1    21.8
    
    Timothy B. Spahr             (C) Copyright 2006 MPC           M.P.E.C. 2006-S28
    

    Read MPEC 2006-S27 Read MPEC 2006-S29


    MPEC number:

    Enter an MPEC number in one of the following forms:

    • 1997-B01 (the full form)
    • J97B01 (the packed version of the full form)
    • B01 (the abbreviated form)